Volver al catálogo

STARLINK-5915

ActivoComunicacionesVLEO
NORAD 55987·PAYLOAD·🇺🇸 United States

Lanzado Mar 24, 2023 desde Cape Canaveral Space Force Station

Loading…

Próximos Pases (próximas 24 horas)

TLE

ActualizadoSource: CelesTrak SupGP

Época: Sep 14, 2026, 22:12 UTC

1 55987C 23042B   26257.92548611  .00050922  00000+0  18444-2 0  2570
2 55987  43.0036  70.9160 0001818 275.7339 332.2069 15.27552386    19

Sigue STARLINK-5915 en tiempo real con AllMySat

Download on the App Store